Location: Costa Valle Imagna
(45.8000°N, 9.5000°E)
Time: 18:10:10
(UTC+00:00)

NOSS 2-1 (C) - Pass Details

Date: 17 February 2020
Orbit: 450 x 1753 km, 63.3° (Epoch: 28 March)

Event Time Altitude Azimuth Distance (km) Brightness Sun altitude
Exits shadow 04:12:34 37° 16° (NNE) 755 4.1 -23.2°
Drops below altitude 10° 04:15:02 10° 33° (NNE) 1,720 6.3 -22.8°
Sets 04:17:24 0° 37° (NE) 2,725 7.5 -22.4°
